Main page
METAR-TAF:

METAR-TAF

Airports :

D15-fa-1, Netherlands

Oil platform

latitude: 54-19-32N, longitude: 2-56-09E, elevation: 36 m

Current weather observation

The report was made 30 minutes ago, at 13:25 UTC
Wind 15 kt from the West/Southwest, varying between South and West/Northwest
Temperature 15°C
Humidity 77%
Pressure 1010 hPa

METAR: EHDV 241325Z AUTO 25015KT 190V290 //// // SCT040/// BKN044/// 15/11 Q1010 RE//

Time: 15:55 (13:55 UTC)


TAF: missing

Weather observations and forecasts of more than 4000 airports (METAR and TAF reports).

The available stations are represented by yellow and red dots on the map.

Hover mouse over dot to see the name of the station.

Then click to see weather observations and forecasts.

To change the map : click on the green buttons with a black cross to zoom in, on the green button with a dash to zoom out, or on the green arrows for adjacent maps.


METAR-TAF: